Wind_Speed
51 52 52 50 50 50 49 47 47 45 44 44 42 41 38 36 35 34 34 34 33 33 32 33 33 33 33 33 33 33 33 33 33 33 34 34 35 35 36 36 37 38 38
51 51 51 52 51 50 49 49 48 47 44 44 43 42 41 39 38 37 36 35 35 35 35 35 35 35 36 36 36 36 36 37 37 37 37 36 36 36 37 38 39 39 39
49 50 51 52 52 51 50 48 48 48 46 45 45 44 43 42 41 40 39 38 37 37 37 37 37 37 37 37 37 37 37 38 39 39 38 38 38 38 39 39 39 40 40
48 49 50 51 51 52 52 51 50 49 49 47 46 45 45 43 42 41 41 40 40 40 40 40 40 39 39 39 39 39 39 39 39 39 40 40 41 40 41 40 41 41 41
47 47 48 49 50 50 51 52 51 50 50 48 47 47 47 45 45 44 44 44 43 43 42 42 42 41 41 42 42 42 41 41 41 42 43 43 44 44 44 43 43 43 42
48 48 48 49 50 50 50 51 51 51 50 49 48 48 47 46 46 46 46 46 46 45 45 45 44 44 44 43 43 43 43 43 43 44 45 46 46 45 46 46 45 44 44
47 46 46 47 49 49 49 50 51 51 51 50 49 49 48 48 48 48 48 47 47 47 46 46 46 46 46 46 46 46 45 46 46 46 46 47 47 47 48 48 47 46 44
46 47 46 47 47 48 49 49 49 50 50 51 51 50 49 49 49 49 49 49 49 49 48 48 48 48 48 49 49 48 48 47 47 48 48 48 48 48 48 48 48 47 46
44 45 45 46 46 47 48 49 49 49 50 50 51 51 51 51 50 50 50 50 50 50 49 49 49 49 49 49 49 49 49 50 49 50 50 50 48 48 48 48 48 47 46
42 43 43 44 45 46 46 48 49 49 49 49 49 49 50 50 50 51 50 50 50 50 50 50 50 49 49 50 50 50 50 51 51 51 50 49 49 48 48 47 46 46 46
40 42 43 43 44 44 45 46 47 48 49 49 50 50 50 50 50 50 50 51 51 51 50 50 51 51 51 51 51 51 51 51 50 49 49 49 49 48 47 46 45 44 44
39 41 41 41 42 44 44 45 45 46 47 48 48 49 49 49 48 48 48 49 49 49 49 50 50 50 50 50 50 50 50 50 50 49 49 48 48 47 46 45 45 44 44
38 39 39 40 40 42 43 43 44 44 45 45 46 47 47 47 47 48 49 49 49 48 48 49 49 49 49 49 50 50 50 50 49 48 48 47 46 46 45 45 45 44 44
37 39 39 39 39 40 40 41 42 43 44 44 44 45 46 46 47 48 48 49 49 48 48 49 49 49 49 49 48 48 48 47 47 46 46 45 45 45 45 45 44 44 44
34 37 38 37 38 39 39 40 40 41 42 42 43 44 44 45 45 45 45 46 46 47 47 47 47 47 47 47 47 47 45 45 45 45 44 44 44 44 44 43 43 43 42
31 34 36 36 36 37 38 38 39 39 39 40 41 41 42 43 43 44 44 44 45 45 46 46 45 45 44 44 44 44 44 44 44 44 43 43 43 43 43 42 42 41 40
29 31 33 35 36 37 37 37 37 38 38 38 38 39 40 41 42 42 43 43 43 43 43 43 43 42 42 42 42 42 42 43 43 43 43 43 43 42 42 42 41 40 39
28 29 31 33 34 35 36 37 37 37 37 37 37 38 39 40 40 40 40 40 40 40 41 41 41 41 41 41 41 41 42 42 43 42 42 42 41 41 41 40 39 38 38
28 29 30 32 33 34 35 35 36 36 36 36 37 37 37 37 38 38 38 39 39 38 38 39 39 40 40 41 41 41 41 41 41 41 41 41 41 40 40 39 38 38 37
28 29 30 31 32 33 33 34 34 35 35 35 36 36 36 37 37 37 38 38 38 38 38 38 39 39 40 40 40 40 40 40 39 39 39 40 40 40 39 37 37 37 36
27 28 29 30 31 32 32 33 34 35 35 35 36 36 36 36 36 36 37 37 37 38 38 38 38 38 38 38 38 38 38 38 38 38 37 37 37 37 37 36 36 35 35
27 28 28 29 29 30 31 32 33 34 34 35 35 35 36 36 36 36 36 36 36 37 37 37 37 37 37 37 37 37 37 37 36 36 36 36 35 35 35 35 34 34 34
28 28 29 29 30 30 30 31 32 33 33 34 35 35 36 36 36 36 36 36 36 36 36 36 36 36 36 36 36 36 36 36 35 35 34 34 34 34 34 33 33 33 33
27 28 29 29 30 31 31 31 32 33 33 34 34 34 34 34 35 35 36 36 36 36 36 36 36 35 35 35 35 35 34 34 34 34 33 33 33 33 32 32 32 32 32
26 27 27 28 29 30 31 31 32 32 33 33 33 33 34 34 34 35 35 35 35 35 35 35 35 34 34 34 34 34 34 34 33 33 32 32 31 31 31 31 31 31 31
25 26 27 28 28 29 29 30 31 32 32 32 33 33 33 34 34 34 35 34 34 34 34 34 34 34 34 34 34 33 33 32 32 32 32 31 31 31 31 31 31 31 31
Wind_Direction
221 223 224 225 227 227 228 229 232 234 235 236 237 240 243 246 249 252 253 254 256 258 260 262 264 265 268 270 271 273 274 275 277 280 282 285 287 289 291 293 295 297 298
221 222 223 226 228 229 230 231 234 236 238 238 240 241 244 246 249 252 254 256 257 258 261 264 266 268 270 270 271 273 274 276 277 280 282 283 285 288 291 293 294 295 297
221 223 224 227 229 230 231 232 234 236 238 240 241 242 245 246 249 252 254 256 258 260 262 263 266 269 270 271 272 274 275 276 278 279 281 283 284 286 289 290 292 293 295
222 223 224 227 228 231 233 235 236 238 239 240 242 244 246 248 250 252 254 256 258 260 263 263 266 268 270 271 271 274 275 276 277 279 281 283 284 286 288 288 290 292 293
223 222 224 227 229 231 233 236 238 239 241 243 244 245 247 250 252 253 256 257 259 260 262 264 265 268 270 272 272 274 275 276 277 279 281 282 284 287 288 288 289 290 291
227 226 226 227 229 231 233 236 238 240 242 243 245 246 248 251 253 255 256 258 259 260 262 264 265 268 270 272 273 274 276 277 278 280 282 283 285 287 288 288 288 289 290
230 230 231 231 232 234 235 237 239 241 243 245 246 248 250 251 253 255 257 259 260 261 263 265 266 267 268 271 273 275 277 277 278 280 282 283 285 286 287 287 287 288 289
231 232 233 234 233 234 235 237 240 242 244 246 247 248 249 251 253 255 257 259 260 262 263 265 267 268 270 272 275 276 277 277 279 280 281 283 285 286 286 286 286 287 288
231 232 232 234 234 235 236 237 239 241 243 246 248 249 250 251 253 255 257 259 260 261 263 265 267 270 271 273 275 276 276 278 280 281 282 282 284 285 285 286 286 287 287
231 232 233 234 236 237 238 239 240 242 243 245 247 248 250 252 253 255 257 259 260 262 264 266 269 270 271 273 275 276 277 279 280 282 282 282 283 284 284 285 285 285 285
230 232 232 234 235 237 239 240 240 242 243 245 247 249 251 253 254 255 257 260 262 264 265 267 269 270 271 273 274 277 279 279 280 281 281 282 282 283 283 282 282 283 284
230 230 231 232 234 236 238 240 241 243 244 246 248 250 251 253 255 256 258 260 262 263 266 267 268 270 271 273 274 275 277 277 278 279 280 280 280 281 280 280 281 282 283
229 229 230 232 234 236 237 239 241 243 245 246 247 248 250 252 253 254 256 259 261 262 265 266 268 270 271 273 274 275 276 276 277 278 279 279 279 279 280 280 281 281 281
230 229 230 231 233 234 236 237 240 243 244 246 247 248 249 251 252 254 256 258 260 262 265 267 269 270 271 273 274 275 276 276 277 278 278 279 279 279 279 280 280 280 280
232 230 231 232 233 234 236 237 239 241 243 245 247 248 250 251 253 255 257 259 261 264 266 268 269 270 271 273 274 275 276 276 277 278 278 278 278 278 278 278 279 279 279
234 232 231 232 233 234 236 238 240 242 244 245 247 249 250 252 253 255 258 260 262 264 266 267 269 270 272 273 274 275 275 276 277 277 277 277 277 277 277 277 277 277 277
236 234 233 232 234 236 237 239 240 242 243 245 247 249 251 253 254 256 258 260 262 264 266 267 269 271 272 273 275 276 277 276 276 276 277 277 277 277 277 277 276 276 275
236 235 235 234 236 237 238 239 240 241 243 246 248 250 252 253 255 257 259 260 262 264 266 268 269 271 272 274 276 277 277 277 277 276 276 276 277 277 277 277 275 274 274
239 238 236 236 237 238 239 240 240 241 243 245 247 249 251 253 255 257 258 260 262 265 267 268 270 272 273 275 276 277 277 277 277 276 276 275 275 276 275 274 273 273 272
241 240 238 237 237 238 239 240 241 242 243 245 248 250 251 253 255 257 259 261 263 265 267 269 270 272 274 275 276 277 277 277 277 276 275 275 274 273 273 273 273 272 271
243 241 240 240 239 240 240 241 242 243 244 246 249 250 252 253 255 258 260 262 264 266 268 270 271 273 274 274 275 277 277 277 277 276 276 275 274 273 272 272 272 271 271
242 241 241 242 242 242 242 243 244 245 246 247 249 250 252 254 256 259 260 262 264 266 268 269 271 272 274 275 276 276 276 276 277 276 276 275 273 272 271 271 270 271 271
245 245 244 244 244 244 244 245 246 247 248 249 251 252 253 255 257 258 260 262 265 267 268 270 272 273 275 275 276 276 276 276 276 276 275 274 274 272 272 271 271 272 272
249 249 248 247 246 245 245 245 247 248 249 251 251 253 254 256 257 259 260 262 265 267 269 270 272 273 274 275 276 276 276 276 275 275 275 274 274 273 272 271 272 272 272
252 251 250 249 248 247 247 247 248 249 249 250 251 253 254 256 258 260 262 263 266 268 269 270 271 272 273 274 275 275 275 275 274 274 274 273 273 272 272 271 271 271 271
253 253 252 251 249 248 247 248 248 250 250 252 253 254 256 257 259 261 263 264 266 267 268 269 270 272 274 274 274 275 275 274 273 272 272 272 272 272 272 272 271 271 271
Height
5753 5759 5766 5772 5779 5785 5790 5795 5799 5803 5807 5812 5816 5820 5824 5827 5829 5832 5834 5835 5837 5838 5839 5840 5841 5842 5842 5842 5842 5842 5842 5841 5841 5840 5839 5838 5837 5835 5833 5831 5829 5827 5824
5745 5752 5758 5765 5772 5778 5783 5788 5792 5796 5800 5805 5809 5813 5816 5819 5822 5824 5826 5828 5830 5831 5832 5833 5834 5835 5835 5835 5835 5835 5834 5834 5833 5833 5832 5831 5830 5828 5826 5823 5821 5819 5816
5738 5745 5751 5758 5764 5770 5776 5780 5785 5789 5793 5797 5801 5804 5807 5810 5814 5817 5819 5820 5822 5823 5825 5825 5826 5827 5827 5827 5827 5826 5826 5826 5825 5824 5823 5823 5822 5821 5819 5816 5813 5811 5808
5731 5737 5744 5750 5756 5762 5767 5772 5777 5781 5785 5789 5792 5795 5799 5802 5806 5808 5810 5812 5813 5815 5816 5817 5817 5818 5818 5818 5818 5818 5818 5817 5816 5815 5814 5813 5812 5811 5810 5808 5805 5802 5800
5724 5730 5736 5742 5748 5754 5759 5764 5768 5773 5777 5781 5784 5787 5790 5794 5796 5798 5801 5802 5804 5805 5807 5807 5808 5809 5809 5809 5809 5809 5809 5808 5807 5806 5805 5804 5802 5800 5799 5798 5796 5793 5791
5716 5722 5727 5733 5739 5745 5750 5755 5759 5764 5768 5771 5775 5778 5781 5784 5787 5789 5791 5793 5795 5796 5797 5798 5798 5799 5800 5800 5800 5799 5799 5798 5798 5796 5795 5794 5793 5791 5789 5787 5785 5783 5781
5707 5714 5719 5725 5730 5736 5741 5745 5750 5754 5758 5762 5765 5769 5772 5775 5777 5780 5782 5783 5785 5786 5788 5788 5789 5790 5790 5790 5790 5789 5789 5788 5788 5786 5785 5784 5782 5780 5778 5776 5774 5772 5770
5699 5705 5711 5716 5721 5726 5731 5736 5740 5744 5748 5752 5756 5759 5762 5765 5767 5769 5771 5773 5775 5776 5777 5778 5778 5779 5779 5780 5779 5779 5779 5778 5777 5776 5775 5773 5771 5769 5767 5765 5763 5761 5760
5691 5697 5703 5708 5712 5717 5722 5726 5731 5735 5738 5742 5745 5748 5751 5754 5757 5759 5761 5762 5764 5765 5766 5767 5767 5768 5768 5769 5768 5768 5768 5767 5766 5765 5763 5762 5760 5758 5756 5754 5752 5750 5749
5683 5689 5694 5699 5703 5708 5712 5717 5721 5725 5728 5732 5735 5738 5741 5744 5746 5748 5750 5752 5753 5754 5755 5756 5756 5757 5757 5757 5757 5757 5756 5755 5754 5753 5752 5751 5749 5747 5745 5743 5741 5739 5737
5674 5680 5685 5689 5694 5698 5703 5707 5711 5715 5718 5721 5724 5727 5730 5733 5735 5737 5739 5741 5742 5743 5744 5745 5745 5745 5746 5746 5745 5745 5744 5743 5742 5741 5740 5739 5737 5735 5733 5731 5730 5728 5726
5666 5671 5676 5680 5685 5689 5693 5698 5701 5705 5708 5711 5714 5717 5719 5722 5724 5726 5728 5729 5731 5732 5732 5733 5733 5733 5734 5734 5733 5733 5732 5731 5730 5729 5728 5727 5725 5723 5721 5720 5718 5716 5714
5657 5662 5667 5671 5675 5680 5684 5688 5691 5695 5698 5701 5704 5706 5709 5711 5713 5715 5717 5718 5719 5720 5721 5721 5721 5722 5722 5722 5721 5721 5720 5719 5718 5717 5716 5714 5713 5712 5710 5708 5707 5705 5703
5650 5654 5658 5663 5667 5671 5674 5678 5681 5685 5688 5691 5694 5696 5698 5700 5702 5704 5705 5707 5708 5709 5709 5710 5710 5710 5710 5710 5709 5708 5707 5707 5705 5704 5703 5702 5701 5700 5698 5697 5695 5693 5691
5641 5646 5650 5654 5658 5662 5665 5668 5672 5675 5678 5681 5684 5686 5688 5690 5692 5693 5695 5696 5697 5698 5698 5698 5698 5698 5698 5698 5697 5696 5695 5695 5694 5693 5691 5690 5689 5688 5686 5685 5683 5682 5680
5634 5637 5641 5645 5649 5653 5656 5659 5663 5666 5668 5671 5674 5676 5678 5680 5682 5683 5684 5685 5686 5687 5687 5687 5687 5686 5686 5686 5685 5684 5684 5683 5682 5681 5679 5678 5677 5676 5674 5673 5672 5670 5669
5627 5630 5634 5637 5641 5644 5647 5650 5653 5656 5659 5662 5664 5666 5668 5670 5671 5673 5674 5675 5675 5676 5676 5676 5676 5675 5675 5674 5673 5673 5672 5671 5670 5669 5668 5666 5665 5664 5663 5661 5660 5659 5658
5620 5623 5626 5629 5633 5636 5639 5641 5644 5647 5650 5652 5655 5657 5658 5660 5661 5662 5663 5664 5665 5665 5665 5665 5665 5664 5664 5663 5662 5662 5661 5659 5658 5657 5656 5655 5654 5653 5651 5650 5649 5648 5647
5613 5615 5618 5621 5624 5627 5629 5632 5635 5638 5640 5643 5645 5647 5649 5650 5651 5653 5654 5654 5655 5655 5655 5655 5654 5654 5653 5652 5652 5650 5649 5648 5646 5645 5644 5643 5643 5642 5640 5640 5639 5638 5637
5606 5608 5611 5613 5616 5618 5621 5623 5626 5629 5631 5633 5636 5637 5639 5640 5641 5643 5643 5644 5644 5645 5644 5644 5644 5643 5642 5642 5640 5639 5638 5637 5635 5634 5633 5632 5631 5630 5629 5629 5628 5628 5627
5599 5601 5603 5605 5608 5610 5612 5615 5617 5620 5622 5624 5626 5628 5629 5630 5632 5633 5633 5634 5634 5634 5634 5634 5633 5632 5632 5631 5630 5628 5627 5626 5625 5623 5622 5621 5620 5619 5619 5618 5618 5617 5617
5591 5593 5595 5597 5600 5602 5604 5606 5608 5611 5613 5614 5616 5618 5619 5620 5622 5622 5623 5624 5624 5624 5624 5623 5623 5622 5621 5620 5619 5618 5617 5615 5614 5613 5612 5611 5610 5609 5608 5608 5608 5607 5607
5584 5585 5587 5589 5591 5593 5595 5597 5599 5601 5603 5605 5606 5608 5609 5611 5612 5612 5613 5613 5614 5614 5613 5613 5612 5612 5611 5609 5608 5607 5606 5605 5604 5603 5602 5601 5600 5599 5599 5598 5598 5598 5598
5576 5578 5579 5581 5583 5584 5586 5588 5590 5592 5594 5595 5597 5598 5599 5601 5601 5602 5603 5603 5603 5603 5603 5603 5602 5601 5600 5599 5598 5597 5596 5595 5594 5593 5592 5591 5590 5590 5589 5589 5588 5588 5588
5569 5570 5571 5573 5574 5576 5578 5579 5581 5583 5584 5586 5587 5589 5590 5591 5592 5592 5593 5593 5593 5593 5593 5592 5592 5591 5590 5589 5588 5587 5586 5585 5584 5583 5583 5582 5581 5580 5580 5579 5579 5579 5579
5561 5562 5563 5564 5566 5567 5569 5570 5572 5573 5575 5576 5578 5579 5580 5581 5581 5582 5582 5582 5583 5583 5582 5582 5581 5581 5580 5579 5578 5577 5576 5575 5575 5574 5573 5573 5572 5571 5571 5570 5570 5570 5569